Location: Noordwijk
(52.2400°N, 4.4500°E)
Time: 12:06:54
(UTC+00:00)

AAUSAT CUBESAT 2 - Visible Passes

Search period start: 04 December 2022 00:00
Search period end: 14 December 2022 00:00
Orbit: 563 x 576 km, 97.5° (Epoch: 03 December)

Date Brightness Start Highest point End Pass type
(mag) Time Alt. Az. Time Alt. Az. Time Alt. Az.
04 Dec ? 04:04:51 10° NNE 04:05:49 16° NNE 04:05:49 16° NNE visible
04 Dec ? 05:40:24 10° N 05:41:55 18° NNW 05:41:55 18° NNW visible
04 Dec ? 16:34:21 10° SW 16:37:10 18° W 16:40:02 10° NW visible
05 Dec ? 04:06:32 10° NNE 04:07:20 15° NNE 04:07:20 15° NNE visible
05 Dec ? 05:42:08 10° N 05:43:26 17° NNW 05:43:26 17° NNW visible
05 Dec ? 16:36:08 10° SW 16:38:53 17° W 16:41:40 10° NW visible
06 Dec ? 04:08:13 10° NNE 04:08:51 14° NNE 04:08:51 14° NNE visible
06 Dec ? 05:43:51 10° N 05:44:57 15° NNW 05:44:57 15° NNW visible
06 Dec ? 16:37:56 10° SW 16:40:35 17° W 16:43:17 10° NW visible
07 Dec ? 04:09:53 10° NNE 04:10:21 13° NNE 04:10:21 13° NNE visible
07 Dec ? 05:45:35 10° N 05:46:28 14° NNW 05:46:28 14° NNW visible
07 Dec ? 16:39:42 10° SW 16:42:17 16° W 16:44:53 10° NW visible
08 Dec ? 04:11:33 10° NNE 04:11:52 12° NNE 04:11:52 12° NNE visible
08 Dec ? 05:47:17 10° NNW 05:47:59 13° NNW 05:47:59 13° NNW visible
08 Dec ? 16:41:30 10° SW 16:43:59 16° W 16:46:29 10° NW visible
09 Dec ? 04:13:12 10° NNE 04:13:23 11° NNE 04:13:23 11° NNE visible
09 Dec ? 05:48:59 10° NNW 05:49:29 12° NNW 05:49:29 12° NNW visible
09 Dec ? 16:43:16 10° SW 16:45:39 15° W 16:48:05 10° NW visible
10 Dec ? 04:14:51 10° NNE 04:14:55 10° NNE 04:14:55 10° NNE visible
10 Dec ? 05:50:41 10° NNW 05:51:01 11° NNW 05:51:01 11° NNW visible
10 Dec ? 16:45:03 10° WSW 16:47:20 14° W 16:49:38 10° NW visible
11 Dec ? 05:52:23 10° NNW 05:52:32 11° NNW 05:52:32 11° NNW visible
11 Dec ? 16:46:49 10° WSW 16:49:00 14° W 16:51:11 10° NW visible
12 Dec ? 16:48:36 10° WSW 16:50:39 13° W 16:52:43 10° WNW visible
13 Dec ? 16:50:22 10° WSW 16:52:18 13° W 16:54:14 10° WNW visible
